Location: Dulzura
(32.6442°N, 116.7814°W)
Time: 02:23:23
(UTC+00:00)

Oscar 11 - Visible Passes

Search period start: 26 March 2023 00:00
Search period end: 05 April 2023 00:00
Orbit: 608 x 622 km, 97.7° (Epoch: 25 March)

Date Brightness Start Highest point End Pass type
(mag) Time Alt. Az. Time Alt. Az. Time Alt. Az.
26 Mar 10.0 11:03:33 10° ENE 11:05:23 12° E 11:07:12 10° ESE visible
26 Mar 7.4 12:37:32 10° N 12:41:33 41° WNW 12:45:23 11° SW visible
27 Mar 9.5 11:18:05 10° NE 11:21:11 19° E 11:24:17 10° SE visible
27 Mar 8.0 12:53:34 10° NNW 12:57:09 27° WNW 13:00:43 10° SW visible
28 Mar 8.8 11:33:11 10° NE 11:36:57 30° E 11:40:22 12° SSE visible
28 Mar 8.6 13:09:51 10° NNW 13:12:43 18° WNW 13:15:35 10° WSW visible
29 Mar 8.0 11:48:33 10° NNE 11:52:41 47° E 11:56:22 12° S visible
30 Mar 7.1 12:04:05 10° NNE 12:08:22 76° ESE 12:12:22 12° S visible
31 Mar 6.9 12:19:45 10° N 12:24:00 68° WNW 12:28:15 10° SSW visible
01 Apr 10.0 11:01:46 10° ENE 11:03:26 12° E 11:05:07 10° ESE visible
01 Apr 7.4 12:35:34 10° N 12:39:37 42° WNW 12:43:39 10° SW visible
02 Apr 9.6 11:16:09 10° NE 11:19:12 19° E 11:22:14 10° SE visible
02 Apr 8.0 12:51:32 10° NNW 12:55:10 28° WNW 12:58:49 10° SW visible
03 Apr 8.9 11:31:11 10° NE 11:34:55 29° E 11:38:38 10° SSE visible
04 Apr 8.1 11:46:29 10° NNE 11:50:36 45° E 11:54:42 10° S visible
